Location: Beadle
(51.4667°N, 109.0000°W)
Time: 04:32:07
(UTC+00:00)

Altair - Pass Details

Date: 29 May 2022
Orbit: 1501 x 1682 km, 47.2° (Epoch: 30 June)

Event Time Altitude Azimuth Distance (km) Brightness Sun altitude
Rises 23:26:32 0° 235° (SW) 4,822 10.9 33.4°
Reaches altitude 10° 23:29:40 10° 232° (SW) 3,860 10.6 32.9°
Maximum altitude 23:39:15 57° 157° (SSE) 1,918 8.3 31.4°
Drops below altitude 10° 23:49:04 10° 83° (E) 3,949 9.2 29.9°
Sets 23:52:18 0° 80° (E) 4,939 9.6 29.4°
